This is the latest recevied weather packets stored in our database for station/object 5B4ALR-13. If no packets are shown the sender has not sent any weather packets the latest 1 day(s).
| Time | Temp. | Humidity | Pressure | Rain* | Wind** | Luminosity | Snow |
|---|---|---|---|---|---|---|---|
| 1836274388 | 23.33° C | 48% | 1014.3 hPa | 0 mm | 0 m/s | - | - |
| 1836274238 | 23.33° C | 49% | 1014.4 hPa | 0 mm | 0.45 m/s, 270° | - | - |
| 1778054467 | 21.67° C | 43% | 1017.5 hPa | 0 mm | 0.89 m/s, 90° | - | - |
| 1778053867 | 21.11° C | 43% | 1017.4 hPa | 0 mm | 0 m/s | - | - |
| 1778053267 | 21.67° C | 41% | 1017.2 hPa | 0 mm | 0.45 m/s, 180° | - | - |
| 1778052667 | 21.67° C | 40% | 1017.3 hPa | 0 mm | 0.89 m/s, 45° | - | - |
| 1778052067 | 21.67° C | 41% | 1017.2 hPa | 0 mm | 1.34 m/s, 45° | - | - |
| 1778051467 | 21.11° C | 43% | 1017.2 hPa | 0 mm | 0.89 m/s, 45° | - | - |
| 1778050867 | 21.67° C | 42% | 1017.1 hPa | 0 mm | 0.89 m/s, 45° | - | - |
| 1778050267 | 21.67° C | 42% | 1017 hPa | 0 mm | 1.79 m/s, 90° | - | - |
| 1778049667 | 21.67° C | 43% | 1016.9 hPa | 0 mm | 0 m/s | - | - |
| 1778049067 | 22.22° C | 41% | 1016.8 hPa | 0 mm | 0.89 m/s, 45° | - | - |
| 1778048467 | 22.78° C | 38% | 1016.8 hPa | 0 mm | 0 m/s | - | - |
| 1778047867 | 23.33° C | 38% | 1016.8 hPa | 0 mm | 0.45 m/s, 90° | - | - |
| 1778047267 | 22.78° C | 38% | 1016.7 hPa | 0 mm | 0 m/s | - | - |
| 1778046667 | 21.67° C | 40% | 1016.6 hPa | 0 mm | 0 m/s | - | - |
| 1778046067 | 23.33° C | 39% | 1016.7 hPa | 0 mm | 0 m/s | - | - |
| 1778045467 | 22.78° C | 40% | 1016.6 hPa | 0 mm | 0 m/s | - | - |
| 1778044867 | 22.22° C | 46% | 1016.6 hPa | 0 mm | 0 m/s | - | - |
| 1778044267 | 21.67° C | 47% | 1016.5 hPa | 0 mm | 0.45 m/s, 270° | - | - |
| 1778043667 | 21.11° C | 49% | 1016.4 hPa | 0 mm | 0 m/s | - | - |
| 1778043067 | 21.11° C | 51% | 1016.3 hPa | 0 mm | 0 m/s | - | - |
| 1778042467 | 21.11° C | 51% | 1016.3 hPa | 0 mm | 0 m/s | - | - |
| 1778041867 | 20° C | 53% | 1016.2 hPa | 0 mm | 0 m/s | - | - |
| 1778041267 | 20° C | 54% | 1016.1 hPa | 0 mm | 0 m/s | - | - |
* Rain latest hour (hover to see other rain measurements)
** Current wind speed in m/s (hover to see current wind gust speed)